Regional Weather Roundup
Issued by NWS Cleveland, OH

Home | Current Version | Previous Version | Graphics & Text | Print | Product List | Glossary On
Versions: 1 2 3 4 5 6 7 8 9 10 11 12 13 14 15 16 17 18 19 20 21 22 23 24 25 26 27 28 29 30 31 32 33 34 35 36 37 38 39 40 41 42 43 44 45 46 47 48 49 50
000
ASUS41 KCLE 162102
RWRCLE
OHIO REGIONAL WEATHER ROUNDUP
NATIONAL WEATHER SERVICE CLEVELAND, OH
400 PM EST SAT DEC 16 2017

NOTE: "FAIR" INDICATES FEW OR NO CLOUDS BELOW 12,000 FEET WITH NO
SIGNIFICANT WEATHER AND/OR OBSTRUCTIONS TO VISIBILITY.

OHZ001>008-015>018-024>027-034-035-043-044-162200-
   NORTHWEST OHIO

CITY           SKY/WX    TMP DP  RH WIND       PRES   REMARKS
DEFIANCE       CLEAR     43  28  55 W3        29.98R
FINDLAY        CLEAR     44  29  55 SW8       29.97R
TOLEDO EXPRESS CLEAR     40  30  67 W9        29.98R
TOLEDO EXEC    CLEAR     40  29  64 W5        30.00R
LIMA           CLEAR     45  30  55 SW10      29.98R
$$

OHZ009>014-019>023-028>033-038-089-162200-
   NORTHEAST OHIO

CITY           SKY/WX    TMP DP  RH WIND       PRES   REMARKS
CLE-HOPKINS    CLOUDY    40  29  64 SW9       30.03R
CLE-LAKEFRONT  CLOUDY    40  29  64 W7        30.01R
CUY CO. ARPT   MOCLDY    41  28  60 W9        30.01R
LORAIN-ELYRIA  CLEAR     39  25  57 W7        30.01R
ASHTABULA      CLOUDY    33  31  92 CALM      30.03R FOG
AKRON-CANTON   PTCLDY    40  26  57 SW6       30.01R
WOOSTER        CLEAR     41  27  57 W9        30.00R
MANSFIELD      CLEAR     42  29  59 SW9       29.99R
YOUNGSTOWN     CLOUDY    37  27  67 SW3       30.00R
$$

OHZ042-051>053-060>062-070>072-077>081-162200-
  SOUTHWEST OHIO

CITY           SKY/WX    TMP DP  RH WIND       PRES   REMARKS
CINC-COVINGTON SUNNY     50  27  40 SW12G22   30.04S
CINC-LUNKEN    SUNNY     50  29  44 S12       30.07S
HAMILTON       SUNNY     51  26  37 SW8G22    30.04F
DAYTON         SUNNY     47  28  47 SW14      30.00S
WRIGHT-PAT AFB SUNNY     49  24  38 S15G24    30.00S
DAYTON GENERAL SUNNY     49  25  39 SW14G22   30.01S
WILMINGTON     SUNNY     47  28  47 SW16      30.03R
$$

OHZ036-037-039>041-045>050-054>059-063>069-073>076-082>088-162200-
  CENTRAL AND SOUTHEAST OHIO

CITY           SKY/WX    TMP DP  RH WIND       PRES   REMARKS
COLUMBUS       CLEAR     48  28  46 SW13G24   30.02R
OSU AIRPORT    CLEAR     47  28  47 SW16G26   30.01R
BOLTON FIELD   CLEAR     46  28  49 SW12      30.02S
RICKENBACK AFB CLEAR     46  28  48 SW15G23   30.02S
NEWARK         CLEAR     47  27  45 SW16      30.02R
MARION         NOT AVBL
LANCASTER      CLEAR     47  27  45 SW15G21   30.03R
ZANESVILLE     CLEAR     47  25  42 SW10      30.03R
NEW PHILLY     NOT AVBL
$$




USA.gov is the U.S. government's official web portal to all federal, state and local government web resources and services.